Location: ??????
(55.2000°N, 38.3000°E)
Time: 08:24:25
(UTC+00:00)

NOSS 2-2 (C) - Pass Details

Date: 15 November 2025
Orbit: 381 x 1696 km, 63.3° (Epoch: 14 December)

Event Time Altitude Azimuth Distance (km) Brightness Sun altitude
Exits shadow 02:55:31 39° 296° (WNW) 799 3.6 -17.4°
Maximum altitude 02:56:49 72° 223° (SW) 591 3.3 -17.2°
Drops below altitude 10° 03:01:35 10° 139° (SE) 2,180 7.1 -16.5°
Sets 03:04:23 0° 138° (SE) 3,323 8.2 -16.1°
